Regional Weather Roundup
Issued by NWS

Home | Current Version | Previous Version | Graphics & Text | Print | Product List | Glossary On
Versions: 1 2 3 4 5 6 7 8 9 10 11 12 13 14 15 16 17 18 19 20 21 22 23 24 25 26 27 28 29 30 31 32 33 34 35 36 37 38 39 40 41 42 43 44 45 46 47 48 49 50
000
ASUS45 KBOI 281510
RWRID

IDAHO REGIONAL WEATHER ROUNDUP
NATIONAL WEATHER SERVICE BOISE ID
900 AM MDT THU JUL 28 2016

NOTE: "FAIR" INDICATES FEW OR NO CLOUDS BELOW 12000 FEET
WITH NO SIGNIFICANT WEATHER AND/OR OBSTRUCTIONS TO VISIBILITY

IDZ012-014-281600-
SOUTHWEST IDAHO


CITY           SKY/WX    TMP DP  RH WIND       PRES   REMARKS
BOISE          SUNNY     73  46  38 SE3       30.08R
CALDWELL       SUNNY     74  53  48 CALM      30.07R
$$

IDZ016-017-281600-
SOUTHCENTRAL IDAHO


CITY           SKY/WX    TMP DP  RH WIND       PRES   REMARKS
BURLEY         SUNNY     69  50  50 CALM      30.16R
JEROME         SUNNY     72  41  32 SE3       30.16R
TWIN FALLS     SUNNY     76  38  25 SW7       30.16S
$$

IDZ019>023-281600-
SOUTHEAST IDAHO


CITY           SKY/WX    TMP DP  RH WIND       PRES   REMARKS
IDAHO FALLS    SUNNY     67  46  47 NE8       30.19S
POCATELLO      SUNNY     68  45  43 NW3       30.19R
REXBURG        SUNNY     67  46  47 E8        30.20S
$$

IDZ006-010-011-018-031-032-281600-
CENTRAL IDAHO MOUNTAINS


CITY           SKY/WX    TMP DP  RH WIND       PRES   REMARKS
MCCALL         SUNNY     64  50  60 S3        30.23R
HAILEY         SUNNY     66  39  37 NW12      30.26S
STANLEY          N/A     53  37  54 CALM      30.34S
SALMON         SUNNY     64  46  52 CALM      30.18S
CHALLIS        SUNNY     66  45  46 E3        30.23S
$$

IDZ002-004-006-007-026-281600-
NORTHERN IDAHO


CITY           SKY/WX    TMP DP  RH WIND       PRES   REMARKS
LEWISTON       SUNNY     74  54  49 NE3       30.07R
LOWELL           N/A     64  57  78 CALM      30.12S
COEUR D`ALENE  SUNNY     72  55  56 NE14      30.09S
MULLAN PASS    SUNNY     66  47  50 CALM      30.29S
$$



USA.gov is the U.S. government's official web portal to all federal, state and local government web resources and services.